Dati Storici

Data ora Umidita' aria (%) Temperatura aria (°C) Rad globale (W/m²) Gonioanemometro (°) Tacoanemometro (m/s) Pioggia (mm)
21-06-2020 14:10 62.9 % 25.458 110.446 -0.03 0 0
21-06-2020 14:00 65 % 25.454 143.294 2.158 0 0
21-06-2020 13:50 68.7 % 25.228 111.486 2.242 0 0
21-06-2020 13:40 72.2 % 24.362 139.212 1.919 0 0
21-06-2020 13:30 71.2 % 23.878 139.149 2.203 0 0
21-06-2020 13:20 67 % 24.504 114.52 0.201 0 0
21-06-2020 13:10 66.6 % 24.062 96.155 1.814 0 0
21-06-2020 13:00 65.4 % 24.41 137.225 1.148 0 0
21-06-2020 12:50 65.6 % 25.08 22.653 0.528 0 0
21-06-2020 12:40 66.4 % 24.699 108.018 1.746 0 0
21-06-2020 12:30 65.8 % 24.875 183.744 2.393 0 0
21-06-2020 12:20 66.3 % 25.537 82.431 2.099 0 0
21-06-2020 12:10 64.6 % 25.263 26.47 2.758 0 0
21-06-2020 12:00 61.7 % 25.059 136.101 1.584 0 0
21-06-2020 11:50 62.4 % 25.825 168.965 0.457 0 0
21-06-2020 11:40 65.3 % 25.494 105.386 0.796 0 0
21-06-2020 11:30 63.7 % 25.28 56.574 1.451 0 0
21-06-2020 11:20 64.9 % 25.439 104.724 1.129 0 0
21-06-2020 11:10 65.6 % 25.175 88.975 1.474 0 0
21-06-2020 11:00 62.9 % 25.547 106.166 2.07 0 0

I dati sono presentati in modo automatico a scopo informativo. In seguito a verifica i dati possono subire modifiche o essere invalidati e non riportati negli archivi definitivi.